When you browse on this site, cookies collect data to enhance your experience and personalize the content and advertising you see.
Visit our Privacy Policy to learn more. By continuing to use the site, you agree to this use of cookies and data.
  • In Schweiz
  • Länderverzeichnis
  • Für 7 Tage
  • Wassertemperatur
  • Wetterkarte
  • Widgets
  • user-avatar
    Anmelden

    Stündliche Wetter Libreville

    Heute, 22 Oktober, Dienstag

    Zeit Temperatur Niederschläge Wind Luftdruck Luftfeuchtigkeit
    00:00 +27°C° 0 mm 1 m/S 758 mmHg 90%
    01:00 +27°C° 0 mm 1 m/S 758 mmHg 89%
    02:00 +27°C° 0.1 mm 1 m/S 757 mmHg 88%
    03:00 +27°C° 0.1 mm 1 m/S 757 mmHg 88%
    04:00 +27°C° 0.1 mm 2 m/S 757 mmHg 88%
    05:00 +27°C° 0.7 mm 2 m/S 757 mmHg 88%
    06:00 +27°C° 0.7 mm 2 m/S 758 mmHg 89%
    07:00 +27°C° 0 mm 2 m/S 758 mmHg 89%
    08:00 +28°C° 0.1 mm 2 m/S 758 mmHg 86%
    09:00 +28°C° 0.1 mm 1 m/S 758 mmHg 82%
    10:00 +29°C° 0.1 mm 1 m/S 758 mmHg 79%
    11:00 +29°C° 0 mm 2 m/S 758 mmHg 77%
    12:00 +30°C° 0 mm 3 m/S 757 mmHg 75%
    13:00 +30°C° 0 mm 3 m/S 756 mmHg 74%
    14:00 +30°C° 0.1 mm 4 m/S 756 mmHg 75%
    15:00 +30°C° 0.1 mm 4 m/S 755 mmHg 75%
    16:00 +30°C° 0.1 mm 5 m/S 755 mmHg 76%
    17:00 +29°C° 0.1 mm 5 m/S 755 mmHg 79%
    18:00 +28°C° 0.1 mm 4 m/S 756 mmHg 82%
    19:00 +28°C° 0.1 mm 4 m/S 757 mmHg 85%
    20:00 +28°C° 0 mm 4 m/S 757 mmHg 85%
    21:00 +28°C° 0 mm 3 m/S 757 mmHg 86%
    22:00 +27°C° 0 mm 3 m/S 757 mmHg 86%
    23:00 +27°C° 0.1 mm 3 m/S 757 mmHg 87%

    Morgen, 23 Oktober, Mittwoch

    Zeit Temperatur Niederschläge Wind Luftdruck Luftfeuchtigkeit
    00:00 +27°C° 0.1 mm 2 m/S 757 mmHg 88%
    01:00 +27°C° 0.1 mm 2 m/S 757 mmHg 88%
    02:00 +27°C° 0.1 mm 2 m/S 756 mmHg 89%
    03:00 +27°C° 0.1 mm 2 m/S 756 mmHg 89%
    04:00 +27°C° 0.1 mm 2 m/S 755 mmHg 89%
    05:00 +27°C° 0 mm 2 m/S 756 mmHg 88%
    06:00 +27°C° 0 mm 2 m/S 757 mmHg 88%
    07:00 +27°C° 0 mm 2 m/S 757 mmHg 87%
    08:00 +28°C° 0 mm 2 m/S 757 mmHg 81%
    09:00 +30°C° 0 mm 2 m/S 757 mmHg 74%
    10:00 +31°C° 0 mm 2 m/S 757 mmHg 68%
    11:00 +31°C° 0 mm 2 m/S 757 mmHg 66%
    12:00 +31°C° 0 mm 3 m/S 756 mmHg 65%
    13:00 +33°C° 0 mm 4 m/S 756 mmHg 63%
    14:00 +32°C° 0.1 mm 4 m/S 755 mmHg 66%
    15:00 +32°C° 0.1 mm 4 m/S 755 mmHg 69%
    16:00 +30°C° 0.1 mm 5 m/S 754 mmHg 72%
    17:00 +29°C° 0.2 mm 4 m/S 755 mmHg 75%
    18:00 +29°C° 0.2 mm 4 m/S 756 mmHg 79%
    19:00 +28°C° 0.2 mm 3 m/S 756 mmHg 82%
    20:00 +28°C° 0.4 mm 3 m/S 757 mmHg 83%
    21:00 +28°C° 0.4 mm 2 m/S 757 mmHg 84%
    22:00 +28°C° 0.4 mm 2 m/S 758 mmHg 85%
    23:00 +27°C° 0 mm 2 m/S 757 mmHg 85%

    übermorgen, 24 Oktober, Donnerstag

    Zeit Temperatur Niederschläge Wind Luftdruck Luftfeuchtigkeit
    00:00 +27°C° 0 mm 2 m/S 757 mmHg 86%
    01:00 +27°C° 0 mm 1 m/S 757 mmHg 86%
    02:00 +27°C° 0.1 mm 1 m/S 756 mmHg 87%
    03:00 +27°C° 0.1 mm 1 m/S 756 mmHg 88%
    04:00 +27°C° 0.1 mm 1 m/S 756 mmHg 89%
    05:00 +27°C° 0.1 mm 1 m/S 757 mmHg 88%
    06:00 +27°C° 0.1 mm 1 m/S 757 mmHg 88%
    07:00 +27°C° 0.1 mm 1 m/S 758 mmHg 87%
    08:00 +28°C° 0.2 mm 1 m/S 758 mmHg 83%
    09:00 +29°C° 0.2 mm 1 m/S 758 mmHg 79%
    10:00 +30°C° 0.2 mm 1 m/S 758 mmHg 75%
    11:00 +30°C° 0.5 mm 2 m/S 758 mmHg 75%
    12:00 +30°C° 0.5 mm 3 m/S 757 mmHg 75%
    13:00 +30°C° 0.5 mm 4 m/S 756 mmHg 76%
    14:00 +30°C° 0.1 mm 4 m/S 756 mmHg 76%
    15:00 +30°C° 0.1 mm 4 m/S 755 mmHg 76%
    16:00 +30°C° 0.1 mm 4 m/S 755 mmHg 76%
    17:00 +29°C° 0.1 mm 4 m/S 755 mmHg 79%
    18:00 +29°C° 0.1 mm 4 m/S 756 mmHg 82%
    19:00 +28°C° 0.1 mm 3 m/S 756 mmHg 85%
    20:00 +28°C° 1.2 mm 3 m/S 757 mmHg 86%
    21:00 +28°C° 1.2 mm 3 m/S 757 mmHg 87%
    22:00 +27°C° 1.2 mm 2 m/S 758 mmHg 88%
    23:00 +27°C° 2.1 mm 3 m/S 758 mmHg 88%

    25 Oktober, Freitag

    Zeit Temperatur Niederschläge Wind Luftdruck Luftfeuchtigkeit
    00:00 +27°C° 2.1 mm 3 m/S 758 mmHg 88%
    01:00 +27°C° 2.1 mm 3 m/S 757 mmHg 88%
    02:00 +27°C° 1.3 mm 3 m/S 757 mmHg 89%
    03:00 +27°C° 1.3 mm 3 m/S 757 mmHg 89%
    04:00 +27°C° 1.3 mm 3 m/S 757 mmHg 89%
    05:00 +27°C° 1.9 mm 3 m/S 757 mmHg 89%
    06:00 +27°C° 1.9 mm 3 m/S 758 mmHg 90%
    07:00 +27°C° 1.9 mm 3 m/S 758 mmHg 90%
    08:00 +27°C° 0.8 mm 3 m/S 758 mmHg 90%
    09:00 +27°C° 0.8 mm 3 m/S 759 mmHg 90%
    10:00 +27°C° 0.8 mm 3 m/S 759 mmHg 89%
    11:00 +27°C° 0.5 mm 3 m/S 758 mmHg 88%
    12:00 +27°C° 0.5 mm 3 m/S 758 mmHg 86%
    13:00 +28°C° 0.5 mm 4 m/S 757 mmHg 85%
    14:00 +28°C° 0.1 mm 3 m/S 757 mmHg 85%
    15:00 +27°C° 0.1 mm 2 m/S 757 mmHg 85%
    16:00 +27°C° 0.1 mm 2 m/S 756 mmHg 86%
    17:00 +27°C° 0 mm 2 m/S 756 mmHg 86%
    18:00 +27°C° 0 mm 2 m/S 757 mmHg 86%
    19:00 +27°C° 0 mm 2 m/S 757 mmHg 86%
    20:00 +27°C° 0 mm 2 m/S 757 mmHg 86%
    21:00 +27°C° 0 mm 1 m/S 758 mmHg 86%
    22:00 +27°C° 0 mm 1 m/S 758 mmHg 86%
    23:00 +26°C° 0.1 mm 1 m/S 758 mmHg 87%

    26 Oktober, Samstag

    Zeit Temperatur Niederschläge Wind Luftdruck Luftfeuchtigkeit
    00:00 +26°C° 0.1 mm 1 m/S 758 mmHg 88%
    01:00 +26°C° 0.1 mm 2 m/S 758 mmHg 90%
    02:00 +26°C° 0.4 mm 2 m/S 757 mmHg 90%
    03:00 +26°C° 0.4 mm 2 m/S 757 mmHg 90%
    04:00 +26°C° 0.4 mm 2 m/S 757 mmHg 91%
    05:00 +26°C° 0.5 mm 3 m/S 757 mmHg 90%
    06:00 +26°C° 0.5 mm 3 m/S 758 mmHg 90%
    07:00 +26°C° 0.5 mm 3 m/S 758 mmHg 90%
    08:00 +27°C° 0.1 mm 2 m/S 758 mmHg 83%
    09:00 +29°C° 0.1 mm 2 m/S 759 mmHg 76%
    10:00 +30°C° 0.1 mm 1 m/S 759 mmHg 70%
    11:00 +31°C° 0.4 mm 2 m/S 758 mmHg 69%
    12:00 +31°C° 0.4 mm 3 m/S 757 mmHg 69%
    13:00 +32°C° 0.4 mm 4 m/S 756 mmHg 68%
    14:00 +30°C° 0.8 mm 4 m/S 756 mmHg 72%
    15:00 +30°C° 0.8 mm 4 m/S 756 mmHg 75%
    16:00 +29°C° 0.8 mm 4 m/S 756 mmHg 78%
    17:00 +29°C° 1.6 mm 4 m/S 756 mmHg 81%
    18:00 +28°C° 1.6 mm 4 m/S 757 mmHg 83%
    19:00 +27°C° 1.6 mm 4 m/S 757 mmHg 86%
    20:00 +27°C° 1.9 mm 4 m/S 758 mmHg 86%
    21:00 +27°C° 1.9 mm 4 m/S 758 mmHg 87%
    22:00 +27°C° 1.9 mm 4 m/S 759 mmHg 87%
    23:00 +27°C° 1.9 mm 4 m/S 758 mmHg 88%

    27 Oktober, Sonntag

    Zeit Temperatur Niederschläge Wind Luftdruck Luftfeuchtigkeit
    00:00 +27°C° 1.9 mm 4 m/S 758 mmHg 88%
    01:00 +27°C° 1.9 mm 4 m/S 758 mmHg 88%
    02:00 +26°C° 2.8 mm 4 m/S 757 mmHg 90%
    03:00 +26°C° 2.8 mm 4 m/S 757 mmHg 91%
    04:00 +26°C° 2.8 mm 4 m/S 757 mmHg 93%
    05:00 +26°C° 4.4 mm 4 m/S 757 mmHg 94%
    06:00 +26°C° 4.4 mm 4 m/S 758 mmHg 95%
    07:00 +25°C° 4.4 mm 3 m/S 758 mmHg 96%
    08:00 +25°C° 8.4 mm 3 m/S 758 mmHg 96%
    09:00 +25°C° 8.4 mm 3 m/S 759 mmHg 96%
    10:00 +25°C° 8.4 mm 2 m/S 759 mmHg 96%
    11:00 +25°C° 2.2 mm 2 m/S 758 mmHg 95%
    12:00 +25°C° 2.2 mm 1 m/S 758 mmHg 93%
    13:00 +25°C° 2.2 mm 1 m/S 757 mmHg 91%
    14:00 +25°C° 0.3 mm 1 m/S 757 mmHg 89%
    15:00 +26°C° 0.3 mm 1 m/S 756 mmHg 87%
    16:00 +26°C° 0.3 mm 1 m/S 756 mmHg 85%
    17:00 +26°C° 0 mm 1 m/S 756 mmHg 86%
    18:00 +26°C° 0 mm 1 m/S 757 mmHg 86%
    19:00 +26°C° 0 mm 1 m/S 757 mmHg 87%
    20:00 +25°C° 0 mm 1 m/S 757 mmHg 87%
    21:00 +25°C° 0 mm 1 m/S 758 mmHg 88%
    22:00 +25°C° 0 mm 1 m/S 758 mmHg 89%
    23:00 +25°C° 0 mm 1 m/S 758 mmHg 90%

    28 Oktober, Montag

    Zeit Temperatur Niederschläge Wind Luftdruck Luftfeuchtigkeit
    00:00 +25°C° 0 mm 2 m/S 757 mmHg 90%
    01:00 +25°C° 0 mm 2 m/S 757 mmHg 91%
    02:00 +25°C° 0 mm 2 m/S 756 mmHg 92%
    03:00 +25°C° 0 mm 2 m/S 756 mmHg 92%
    04:00 +25°C° 0 mm 3 m/S 756 mmHg 92%
    05:00 +25°C° 0 mm 3 m/S 756 mmHg 92%
    06:00 +25°C° 0 mm 3 m/S 757 mmHg 91%
    07:00 +25°C° 0 mm 3 m/S 757 mmHg 91%
    08:00 +26°C° 0 mm 3 m/S 757 mmHg 87%
    09:00 +27°C° 0 mm 3 m/S 758 mmHg 82%
    10:00 +29°C° 0 mm 3 m/S 758 mmHg 78%
    11:00 +29°C° 0.2 mm 3 m/S 757 mmHg 77%
    12:00 +29°C° 0.2 mm 3 m/S 757 mmHg 75%
    13:00 +30°C° 0.2 mm 4 m/S 756 mmHg 74%
    14:00 +29°C° 0.3 mm 4 m/S 756 mmHg 76%
    15:00 +29°C° 0.3 mm 4 m/S 755 mmHg 79%
    16:00 +29°C° 0.3 mm 4 m/S 755 mmHg 81%
    17:00 +28°C° 0.1 mm 3 m/S 755 mmHg 83%
    18:00 +27°C° 0.1 mm 3 m/S 756 mmHg 85%
    19:00 +27°C° 0.1 mm 3 m/S 756 mmHg 86%
    20:00 +27°C° 0 mm 3 m/S 757 mmHg 87%
    21:00 +27°C° 0 mm 3 m/S 757 mmHg 87%
    22:00 +27°C° 0 mm 3 m/S 758 mmHg 87%
    23:00 +26°C° 0 mm 3 m/S 757 mmHg 87%
    Mehr zeigen